weather.gov     
National Weather Service

Terminal Aerodrome Forecast
NWS Homepage
This page is being discontinued on March 12, 2014.
The same data is available at this site. Please update your bookmarks.
Thank you, and we apologize for the inconvenience.
Please send an email to SR-SRH.Webmaster@noaa.gov with any concerns.


Current Version
Previous Version:    01  02  03  04  05  06  07  08  09  10  11  12  13  14  15  16  17  18  19  20  21  22  23  24  25  26  27  28  29  
[Printable]
403
FTUS45 KRIW 222300
TAFJAC
TAF
KJAC 222332Z 2300/2324 32008KT P6SM -SHSN SCT020 BKN050
      TEMPO 2300/2303 1SM -SN BR SCT005 BKN015 OVC050
     FM230300 36009KT P6SM VCSH SCT050
     FM230600 VRB04KT P6SM VCFG SCT100
     FM231500 VRB03KT P6SM SCT100
      AMD LTD TO CLD VIS AND WIND=


U.S. Dept. of Commerce
NOAA National Weather Service
1325 East West Highway
Silver Spring, MD 20910
E-mail: w-nws.webmaster@noaa.gov
Page last modified: May 16, 2007
NATIONAL WEATHER SERVICE: for Safety, for Work, for Fun - FOR LIFE